Time,TemperatureF,DewpointF,PressureIn,WindDirection,WindDirectionDegrees,WindSpeedMPH,WindSpeedGustMPH,Humidity,HourlyPrecipIn,Conditions,Clouds,dailyrainin,SoftwareType,DateUTC
2013-09-11 00:11:00,62.0,45.0,29.86,NNE,22,1.0,3.0,53,0.00,,,0.00,,2013-09-11 07:11:00,
2013-09-11 00:23:00,62.0,45.0,29.87,NNE,17,0.0,3.0,53,0.00,,,0.00,,2013-09-11 07:23:00,
2013-09-11 00:42:00,62.0,45.0,29.87,NNE,30,1.0,4.0,53,0.00,,,0.00,,2013-09-11 07:42:00,
2013-09-11 00:52:00,61.0,44.0,29.87,NE,43,1.0,3.0,54,0.00,,,0.00,,2013-09-11 07:52:00,
2013-09-11 01:11:00,60.0,44.0,29.87,NE,43,0.0,3.0,56,0.00,,,0.00,,2013-09-11 08:11:00,
2013-09-11 01:21:00,58.0,44.0,29.87,NE,37,1.0,2.0,59,0.00,,,0.00,,2013-09-11 08:21:00,
2013-09-11 01:42:00,55.0,43.0,29.88,NE,37,0.0,1.0,65,0.00,,,0.00,,2013-09-11 08:42:00,
2013-09-11 01:52:00,54.0,43.0,29.88,NE,37,0.0,0.0,66,0.00,,,0.00,,2013-09-11 08:52:00,
2013-09-11 02:11:00,52.0,43.0,29.88,NE,37,0.0,1.0,71,0.00,,,0.00,,2013-09-11 09:11:00,
2013-09-11 02:21:00,54.0,44.0,29.88,NE,37,0.0,2.0,69,0.00,,,0.00,,2013-09-11 09:21:00,
2013-09-11 02:43:00,51.0,43.0,29.88,NE,37,0.0,1.0,75,0.00,,,0.00,,2013-09-11 09:43:00,
2013-09-11 02:53:00,53.0,43.0,29.88,NE,37,2.0,4.0,70,0.00,,,0.00,,2013-09-11 09:53:00,
2013-09-11 03:12:00,54.0,44.0,29.88,NE,38,3.0,6.0,69,0.00,,,0.00,,2013-09-11 10:12:00,
2013-09-11 03:23:00,53.0,43.0,29.88,NNE,19,1.0,5.0,69,0.00,,,0.00,,2013-09-11 10:23:00,
2013-09-11 03:42:00,52.0,43.0,29.88,NNE,13,0.0,2.0,72,0.00,,,0.00,,2013-09-11 10:42:00,
2013-09-11 03:53:00,52.0,44.0,29.88,NNE,13,0.0,1.0,73,0.00,,,0.00,,2013-09-11 10:53:00,
2013-09-11 04:12:00,52.0,43.0,29.88,NNE,13,0.0,1.0,71,0.00,,,0.00,,2013-09-11 11:12:00,
2013-09-11 04:21:00,50.0,43.0,29.88,NNE,13,0.0,0.0,76,0.00,,,0.00,,2013-09-11 11:21:00,
2013-09-11 04:52:00,48.0,42.0,29.89,NNE,13,0.0,0.0,81,0.00,,,0.00,,2013-09-11 11:52:00,
2013-09-11 05:11:00,48.0,42.0,29.89,NNE,13,0.0,1.0,80,0.00,,,0.00,,2013-09-11 12:11:00,
2013-09-11 05:21:00,46.0,41.0,29.89,NNE,13,0.0,0.0,83,0.00,,,0.00,,2013-09-11 12:21:00,
2013-09-11 05:52:00,45.0,40.0,29.90,NNE,13,0.0,0.0,84,0.00,,,0.00,,2013-09-11 12:52:00,
2013-09-11 06:12:00,45.0,41.0,29.91,NNE,13,0.0,0.0,85,0.00,,,0.00,,2013-09-11 13:12:00,
2013-09-11 06:21:00,45.0,41.0,29.91,NNE,13,0.0,0.0,85,0.00,,,0.00,,2013-09-11 13:21:00,
2013-09-11 06:41:00,45.0,41.0,29.91,NNE,13,0.0,0.0,86,0.00,,,0.00,,2013-09-11 13:41:00,
2013-09-11 06:52:00,44.0,40.0,29.91,NNE,13,0.0,0.0,86,0.00,,,0.00,,2013-09-11 13:52:00,
2013-09-11 07:11:00,43.0,39.0,29.91,NNE,13,0.0,0.0,87,0.00,,,0.00,,2013-09-11 14:11:00,
2013-09-11 07:21:00,42.0,39.0,29.92,NNE,13,0.0,0.0,89,0.00,,,0.00,,2013-09-11 14:21:00,
2013-09-11 07:42:00,43.0,40.0,29.92,NNE,13,0.0,0.0,88,0.00,,,0.00,,2013-09-11 14:42:00,
2013-09-11 07:52:00,44.0,39.0,29.93,NNE,13,0.0,1.0,83,0.00,,,0.00,,2013-09-11 14:52:00,
2013-09-11 08:11:00,46.0,41.0,29.93,NNE,13,0.0,0.0,83,0.00,,,0.00,,2013-09-11 15:11:00,
2013-09-11 08:22:00,47.0,41.0,29.93,NNE,13,0.0,0.0,81,0.00,,,0.00,,2013-09-11 15:22:00,
2013-09-11 08:42:00,49.0,42.0,29.93,NNE,13,0.0,1.0,76,0.00,,,0.00,,2013-09-11 15:42:00,
2013-09-11 08:54:00,51.0,43.0,29.93,SW,221,0.0,2.0,74,0.00,,,0.00,,2013-09-11 15:54:00,
2013-09-11 09:13:00,53.0,44.0,29.93,SW,220,0.0,3.0,71,0.00,,,0.00,,2013-09-11 16:13:00,
2013-09-11 09:23:00,54.0,44.0,29.93,SW,214,0.0,3.0,69,0.00,,,0.00,,2013-09-11 16:23:00,
2013-09-11 09:53:00,60.0,47.0,29.93,SSW,200,0.0,3.0,61,0.00,,,0.00,,2013-09-11 16:53:00,
2013-09-11 10:12:00,61.0,47.0,29.92,SSW,192,0.0,2.0,61,0.00,,,0.00,,2013-09-11 17:12:00,
2013-09-11 10:23:00,64.0,48.0,29.92,SSW,192,0.0,1.0,57,0.00,,,0.00,,2013-09-11 17:23:00,
2013-09-11 10:52:00,71.0,51.0,29.91,North,9,2.0,7.0,49,0.00,,,0.00,,2013-09-11 17:52:00,
2013-09-11 11:21:00,75.0,50.0,29.90,ENE,65,6.0,10.0,41,0.00,,,0.00,,2013-09-11 18:21:00,
2013-09-11 11:52:00,78.0,49.0,29.89,ENE,74,6.0,12.0,36,0.00,,,0.00,,2013-09-11 18:52:00,
2013-09-11 12:11:00,79.0,50.0,29.88,NE,46,4.0,16.0,36,0.00,,,0.00,,2013-09-11 19:11:00,
2013-09-11 12:21:00,79.0,49.0,29.88,North,355,5.0,13.0,35,0.00,,,0.00,,2013-09-11 19:21:00,
2013-09-11 12:42:00,80.0,48.0,29.87,NE,43,5.0,11.0,33,0.00,,,0.00,,2013-09-11 19:42:00,
2013-09-11 12:53:00,81.0,49.0,29.87,NNE,18,3.0,12.0,33,0.00,,,0.00,,2013-09-11 19:53:00,
2013-09-11 13:12:00,82.0,47.0,29.87,ENE,63,8.0,15.0,30,0.00,,,0.00,,2013-09-11 20:12:00,
2013-09-11 13:21:00,82.0,47.0,29.86,NNE,26,7.0,12.0,30,0.00,,,0.00,,2013-09-11 20:21:00,
2013-09-11 13:42:00,82.0,46.0,29.86,NE,49,5.0,13.0,28,0.00,,,0.00,,2013-09-11 20:42:00,
2013-09-11 13:52:00,83.0,46.0,29.85,NNE,19,5.0,14.0,27,0.00,,,0.00,,2013-09-11 20:52:00,
2013-09-11 14:11:00,83.0,46.0,29.85,North,350,5.0,16.0,27,0.00,,,0.00,,2013-09-11 21:11:00,
2013-09-11 14:21:00,84.0,46.0,29.85,NE,36,5.0,15.0,27,0.00,,,0.00,,2013-09-11 21:21:00,
2013-09-11 14:44:00,85.0,44.0,29.85,NE,39,7.0,14.0,24,0.00,,,0.00,,2013-09-11 21:44:00,
2013-09-11 14:54:00,84.0,43.0,29.85,NNW,343,5.0,14.0,24,0.00,,,0.00,,2013-09-11 21:54:00,
2013-09-11 15:13:00,84.0,43.0,29.84,North,355,6.0,13.0,24,0.00,,,0.00,,2013-09-11 22:13:00,
2013-09-11 15:24:00,85.0,44.0,29.84,NNW,344,3.0,11.0,24,0.00,,,0.00,,2013-09-11 22:24:00,
2013-09-11 15:54:00,85.0,44.0,29.83,North,5,1.0,12.0,24,0.00,,,0.00,,2013-09-11 22:54:00,
2013-09-11 16:12:00,85.0,42.0,29.83,North,9,7.0,13.0,22,0.00,,,0.00,,2013-09-11 23:12:00,
2013-09-11 16:22:00,86.0,43.0,29.82,NE,38,4.0,11.0,22,0.00,,,0.00,,2013-09-11 23:22:00,
2013-09-11 16:42:00,86.0,41.0,29.82,NNE,30,6.0,19.0,21,0.00,,,0.00,,2013-09-11 23:42:00,
2013-09-11 16:53:00,85.0,43.0,29.82,North,355,6.0,14.0,23,0.00,,,0.00,,2013-09-11 23:53:00,
2013-09-11 17:11:00,86.0,43.0,29.82,NNE,26,5.0,11.0,22,0.00,,,0.00,,2013-09-12 00:11:00,
2013-09-11 17:21:00,85.0,43.0,29.82,North,5,5.0,12.0,23,0.00,,,0.00,,2013-09-12 00:21:00,
2013-09-11 17:42:00,85.0,43.0,29.82,NNE,17,5.0,13.0,23,0.00,,,0.00,,2013-09-12 00:42:00,
2013-09-11 17:52:00,85.0,43.0,29.82,ENE,68,6.0,12.0,23,0.00,,,0.00,,2013-09-12 00:52:00,
2013-09-11 18:11:00,84.0,44.0,29.82,NE,43,6.0,12.0,25,0.00,,,0.00,,2013-09-12 01:11:00,
2013-09-11 18:22:00,83.0,45.0,29.82,ENE,67,7.0,13.0,26,0.00,,,0.00,,2013-09-12 01:22:00,
2013-09-11 18:41:00,82.0,45.0,29.82,North,9,7.0,16.0,27,0.00,,,0.00,,2013-09-12 01:41:00,
2013-09-11 18:52:00,81.0,44.0,29.82,NE,40,4.0,12.0,27,0.00,,,0.00,,2013-09-12 01:52:00,
2013-09-11 19:12:00,80.0,44.0,29.82,NE,34,4.0,13.0,28,0.00,,,0.00,,2013-09-12 02:12:00,
2013-09-11 19:21:00,78.0,45.0,29.82,NNE,23,3.0,10.0,31,0.00,,,0.00,,2013-09-12 02:21:00,
2013-09-11 19:33:00,78.0,45.0,29.82,NNE,23,3.0,10.0,31,0.00,,,0.00,,2013-09-12 02:33:00,
2013-09-11 19:42:00,78.0,45.0,29.82,NNE,23,3.0,10.0,31,0.00,,,0.00,,2013-09-12 02:42:00,
2013-09-11 20:11:00,73.0,45.0,29.83,NNE,33,2.0,7.0,37,0.00,,,0.00,,2013-09-12 03:11:00,
2013-09-11 20:22:00,71.0,45.0,29.84,NE,38,0.0,4.0,39,0.00,,,0.00,,2013-09-12 03:22:00,
2013-09-11 20:44:00,71.0,45.0,29.84,NE,35,1.0,5.0,39,0.00,,,0.00,,2013-09-12 03:44:00,
2013-09-11 20:55:00,69.0,45.0,29.85,ENE,57,3.0,5.0,42,0.00,,,0.00,,2013-09-12 03:55:00,
2013-09-11 21:14:00,69.0,46.0,29.85,ENE,65,3.0,8.0,43,0.00,,,0.00,,2013-09-12 04:14:00,
2013-09-11 21:23:00,69.0,46.0,29.85,ENE,57,4.0,9.0,43,0.00,,,0.00,,2013-09-12 04:23:00,
2013-09-11 21:43:00,68.0,45.0,29.86,NE,49,3.0,8.0,44,0.00,,,0.00,,2013-09-12 04:43:00,
2013-09-11 21:54:00,68.0,45.0,29.86,ENE,60,4.0,9.0,43,0.00,,,0.00,,2013-09-12 04:54:00,
2013-09-11 22:13:00,67.0,44.0,29.86,ENE,61,2.0,8.0,44,0.00,,,0.00,,2013-09-12 05:13:00,
2013-09-11 22:22:00,68.0,45.0,29.86,ENE,70,8.0,11.0,43,0.00,,,0.00,,2013-09-12 05:22:00,
2013-09-11 22:43:00,68.0,45.0,29.87,ENE,63,7.0,11.0,43,0.00,,,0.00,,2013-09-12 05:43:00,
2013-09-11 22:52:00,68.0,45.0,29.87,NE,44,4.0,11.0,44,0.00,,,0.00,,2013-09-12 05:52:00,
2013-09-11 23:12:00,67.0,45.0,29.87,ENE,57,7.0,9.0,45,0.00,,,0.00,,2013-09-12 06:12:00,
2013-09-11 23:21:00,66.0,45.0,29.87,NE,41,1.0,5.0,47,0.00,,,0.00,,2013-09-12 06:21:00,
2013-09-11 23:42:00,65.0,45.0,29.87,NNE,30,1.0,4.0,48,0.00,,,0.00,,2013-09-12 06:42:00,
2013-09-11 23:52:00,64.0,45.0,29.87,NNE,30,0.0,3.0,51,0.00,,,0.00,,2013-09-12 06:52:00,